Regional Weather Roundup
Issued by NWS State College, PA

Home | Current Version | Previous Version | Graphics & Text | Print | Product List | Glossary Off
Versions: 1 2 3 4 5 6 7 8 9 10 11 12 13 14 15 16 17 18 19 20 21 22 23 24 25 26 27 28 29 30 31 32 33 34 35 36 37 38 39 40 41 42 43 44 45 46 47 48 49 50

000
ASUS41 KCTP 190810
RWRCTP

REGIONAL WEATHER ROUNDUP
NATIONAL WEATHER SERVICE STATE COLLEGE PA
400 AM EDT SUN APR 19 2015

Note: "fair" indicates few or no clouds below 12,000 feet with no
significant weather and/or obstructions to visibility.

* = STATION THAT DOES NOT REPORT PRECIPITATION /E.G. RAIN...SNOW...ETC/
    THUNDER OR FOG.

PAZ002>004-007>009-013>016-020>023-029>032-190900-
WESTERN PENNSYLVANIA

CITY           SKY/WX    TMP DP  RH WIND       PRES   REMARKS
ERIE           PTCLDY    42  28  57 E7        30.11F
MEADVILLE      PTCLDY    43  24  47 NE6       30.08F
FRANKLIN*      PTCLDY    46  25  42 E8        30.09F
NEW CASTLE     FAIR      51  28  41 E3        30.07S
BEAVER COUNTY  NOT AVBL
BUTLER*        CLOUDY    48  30  49 NE6       30.07R
PITTSBURGH INT CLOUDY    56  35  45 NE7       30.03F
PITTSBURGH     CLOUDY    56  32  40 N5        30.02F
INDIANA*       CLOUDY    54  32  43 E7G13     30.10R
LATROBE        CLOUDY    52  37  58 CALM      30.05S
WASHINGTON CO* CLOUDY    55  37  50 NE5       30.04F
$$

PAZ004>006-010>012-017>019-024>028-033>037-041-042-045-046-049>053-190900-
CENTRAL PENNSYLVANIA

CITY           SKY/WX    TMP DP  RH WIND       PRES   REMARKS
BRADFORD       PTCLDY    41  22  46 E7        30.12S
DUBOIS         PTCLDY    46  26  45 E8        30.08F
CLEARFIELD     PTCLDY    47  27  45 NE6       30.11F
JOHNSTOWN      MOCLDY    49  31  49 E7        30.06S
ALTOONA        PTCLDY    51  27  39 NE6       30.10R
STATE COLLEGE  PTCLDY    49  26  40 NE7       30.12S
WILLIAMSPORT   PTCLDY    45  32  60 CALM      30.15R
SELINSGROVE    MOCLDY    45  34  65 NW3       30.14R
FT INDIANTOWN  MOCLDY    49  29  45 NE6       30.12R
CAPITAL CITY   MOCLDY    54  29  38 E7        30.11R
HARRISBURG     MOCLDY    57  26  30 E7        30.11R
YORK           MOCLDY    52  33  48 VRB3      30.11R
$$

PAZ038>040-043-044-047-048-054-055-060>062-067>071-190900-
EASTERN PENNSYLVANIA

CITY           SKY/WX    TMP DP  RH WIND       PRES   REMARKS
SCRANTON       PTCLDY    49  23  36 E5        30.14R
MOUNT POCONO   FAIR      42  23  46 NE7       30.13R
ALLENTOWN      MOCLDY    47  27  45 N3        30.14R
QUAKERTOWN*    MOSUNNY   48  32  53 CALM      30.14R
READING        NOT AVBL
LANCASTER      MOCLDY    53  28  38 NE8       30.11R
COATESVILLE    PTSUNNY   55  28  35 NE3       30.12R
POTTSTOWN      MOCLDY    50  29  44 N3        30.14R
BLUE BELL      PTCLDY    54  32  43 CALM      30.12R
DOYLESTOWN     PTCLDY    52  24  33 NE3       30.12R
WILLOW GROVE   NOT AVBL
NORTH PHILA    PTCLDY    57  24  28 N9        30.13R
PHILADELPHIA   MOCLDY    62  22  21 NE16      30.10F
$$


USA.gov is the U.S. government's official web portal to all federal, state and local government web resources and services.